Regional Weather Roundup
Issued by NWS

Home | Current Version | Previous Version | Graphics & Text | Print | Product List | Glossary On
Versions: 1 2 3 4 5 6 7 8 9 10 11 12 13 14 15 16 17 18 19 20 21 22 23 24 25 26 27 28 29 30 31 32 33 34 35 36 37 38 39 40 41 42 43 44 45 46 47 48 49 50
000
ASUS43 KIND 261509
RWRIN

WEATHER ROUNDUP FOR INDIANA
NATIONAL WEATHER SERVICE INDIANAPOLIS IN
1100 AM EDT TUE MAY 26 2015

NOTE: "FAIR" INDICATES FEW OR NO CLOUDS BELOW 12,000 FEET WITH NO
SIGNIFICANT WEATHER AND/OR OBSTRUCTIONS TO VISIBILITY.

* - STATION DOES NOT REPORT WEATHER SUCH AS PRECIPITATION OR FOG.

+ - STATION NOT QUALITY CONTROLLED BY THE NATIONAL WEATHER SERVICE.
    USE DATA WITH CAUTION...ESPECIALLY DEWPOINT AND RELATIVE
    HUMIDITY OBSERVATIONS.

INZ001>003-010>013-019-020-261600-
NORTHWEST INDIANA

CITY           SKY/WX    TMP DP  RH WIND       PRES   REMARKS
GARY /AIRPORT/ CLOUDY    73  66  78 SE10      29.91F
KNOX *+        CLOUDY    73  63  68 S13G18    29.95F
LA PORTE +     CLOUDY    73  67  80 S9        29.96F
MICHIGAN CITY+ CLOUDY    70  63  78 S9G16     29.94F
MONTICELLO +   CLOUDY    73  67  81 S14G21    29.95F
RENSSELAER +   CLOUDY    72  68  88 S17G23    29.93F
VALPARAISO     CLOUDY    72  65  78 S13       29.94F

$$

LMZ046-743>745-261600-
SOUTHERN LAKE MICHIGAN

STATION/POSITION TIME  TEMP    WIND        PRES    WAVE
                       AIR SEA DIR/SP/G            HT
                 (UTC) (F)     (DEG/KT/KT) (MB)    (FT)
BURNS HARBOR     1500   73     170/ 12/ 23 1013.9S
MICHIGAN CITY    1500   70     140/ 16/ 21   N/A
5NW MICH CITY    1500   65 52  180/ 10/ 14   N/A     1

$$

INZ004-005-014>016-021>024-261600-
NORTH CENTRAL INDIANA

CITY           SKY/WX    TMP DP  RH WIND       PRES   REMARKS
ELKHART        CLOUDY    72  64  78 S8        30.00F
GOSHEN         CLOUDY    72  65  78 S13       30.00F
LOGANSPORT +   CLOUDY    77  61  57 S18G24    29.98F
PERU/GRISSOM   MOSUNNY   77  66  68 S15       29.97F
ROCHESTER +    PTSUNNY   75  68  78 S12G20    29.98F
SOUTH BEND     CLOUDY    71  65  81 S12       29.97F
WARSAW +       CLOUDY    73  64  73 S5        30.00F

$$

INZ006>009-017-018-025>027-261600-
NORTHEAST INDIANA

CITY           SKY/WX    TMP DP  RH WIND       PRES   REMARKS
ANGOLA *+      CLOUDY    72  64  78 S8        30.03F
AUBURN +       MOSUNNY   77  63  61 S8        30.03F
FORT WAYNE     PTSUNNY   78  65  63 S16G22    30.02F
HUNTINGTON +   MOSUNNY   75  63  65 S8        30.01F

$$

INZ028-029-035-036-043>045-051>053-261600-
WEST CENTRAL INDIANA

CITY           SKY/WX    TMP DP  RH WIND       PRES   REMARKS
CRAWFORDSVL +  CLOUDY    73  61  65 SE17      29.96F
GREENCASTLE +  PTSUNNY   73  63  68 S16       29.98F
LAFAYETTE      CLOUDY    73  64  73 S13G25    29.94F
TERRE HAUTE    PTSUNNY   74  66  76 S15G23    29.94F

$$

INZ030>032-037>040-046>048-054>057-064-065-261600-
CENTRAL INDIANA

CITY           SKY/WX    TMP DP  RH WIND       PRES   REMARKS
CP ATTERBURY + SUNNY     77  64  65 S10G17    30.03F
COLUMBUS       SUNNY     75  63  64 S16       30.03F
FRANKFORT +    PTSUNNY   76  66  70 S16G24    29.99F
GREENWOOD *+   MOSUNNY   79  61  53 S14G24    30.02F
INDIANAPOLIS   MOSUNNY   77  65  66 S17G23    29.98F
-EAGLE CREEK   PTSUNNY   75  65  70 S10G17    29.99F
KOKOMO *+      MOSUNNY   75  64  69 S18G26    29.99F
MARION +       PTSUNNY   77  61  57 S18G25    30.02F
MT COMFORT *+  PTSUNNY   79  55  44 S15G24    30.02F
SHELBYVILLE    MOSUNNY   80  64  58 S17       30.02F
ZIONSVILLE +   PTSUNNY   77  63  62 S14G22    30.00F

$$

INZ033-034-041-042-049-050-058-059-261600-
EAST CENTRAL INDIANA

CITY           SKY/WX    TMP DP  RH WIND       PRES   REMARKS
MUNCIE         MOSUNNY   78  62  57 S14G24    30.03F

$$

INZ060-061-067>069-081>083-085>088-261600-
SOUTHWEST INDIANA

CITY           SKY/WX    TMP DP  RH WIND       PRES   REMARKS
EVANSVILLE     CLOUDY    75  66  73 S14G22    29.98R
HUNTINGBURG *+ PTSUNNY   77  66  69 S12G23    29.98F
WASHINGTON +   PTSUNNY   76  65  68 S21G30    29.95F

$$

INZ062-063-066-070>080-084-089>092-261600-
SOUTH CENTRAL AND SOUTHEAST INDIANA

CITY           SKY/WX    TMP DP  RH WIND       PRES   REMARKS
BLOOMINGTON    MOSUNNY   76  65  68 S14G25    29.99F
MADISON *+     SUNNY     79  61  53 S12G20    30.08F
NORTH VERNON + MOSUNNY   77  66  69 S9        30.06F
SEYMOUR +      MOSUNNY   81  63  54 S13       30.03F

$$




USA.gov is the U.S. government's official web portal to all federal, state and local government web resources and services.